Find Hawk 5B

NORAD ID: 52756 Int'l Des: 2022-057 Owner: HE360 Country: US Constellation: hawkeye-360 operational
LEOCIRCULARRETROGRADE

Current View

Loading 3D Globe...

About Hawk 5B

Description loading...

Upcoming Passes

Passes for default location (London). Set your location on the main map for personalized predictions.

Altitude History

Loading altitude history...

Two-Line Element Set

1 52756U 22057AA 26149.39915369 .00024064 00000-0 42069-3 0 9998
2 52756 97.6575 306.2167 0005975 130.4901 229.6871 15.50634643223431
Epoch: May 29, 2026 • Age: 16 hours

Current Status

Altitude 423.7 km
Velocity 7.67 km/s
Sub-Earth Point 73.71°N, 116.17°W
Launch Date May 25, 2022
Age 4 years
Type other

Technical Details

Classification Payload
Mass 31.00 kg
Dry Mass 30.00 kg
Total Mass 31.00 kg
Length 0.50 m
Diameter 0.40 m
Span 1.00 m
Shape Box + 2 pan
Manufacturer UTIAS
Bus Type Defiant
Phase Status In Orbit
Owner/State HE360/US

Most Searched